Flag for Germany Weather past 2 weeks in Wedel, Schleswig-Holstein, Germany

Now
36 °F

Light rain. Passing clouds.


Feels Like: 25 °F
Forecast: 27 / 33 °F
Wind: 17 mph from North

Location: Hamburg-Fuhlsbuettel

Current Time: Dec 25, 2014 at 5:36:25 PM

Latest Report: Dec 25, 2014 at 5:20 PM


Visibility: 4 mi

Pressure: 30.07 "Hg

Humidity: 93%

Dew point: 34 °F

Location of WedelLocation

Historic Weather in Wedel — Graph

°F

Wedel temperature yesterday

Maximum temperature yesterday: 50 °F (at 12:20 AM)
Minimum temperature yesterday: 39 °F (at 11:50 PM)
Average temperature yesterday: 46 °F

Past Weeks' High & Low Weather Summary

 TemperatureHumidityPressure
High54 °F (Dec 18, 7:20 PM)100% (Dec 12, 7:20 AM)30.18 "Hg (Dec 12, 7:20 AM)
Low34 °F (Dec 13, 7:20 PM)61% (Dec 25, 11:50 AM)29.18 "Hg (Dec 12, 12:50 PM)
Average43 °F90%29.73 "Hg
* Reported Dec 10 4:20 PM — Dec 25 4:20 PM, Wedel, Weather by CustomWeather, © 2014

Note: Actual official high and low records may vary slightly from our data, if they occured in-between our weather recording intervals... More about our weather records

Advertising

Wedel weather history for previous 24 hours

 ConditionsComfort  
Time TempWeatherWind HumidityBarometerVisibility
4:20 PM
Dec 25
37 °FLight rain. Passing clouds.16 mph93%30.01 "Hg6 mi
3:50 PM37 °FLight rain. Partly sunny.18 mph93%29.98 "Hg6 mi
3:20 PM39 °FLight rain. Partly sunny.21 mph87%29.95 "HgN/A
2:50 PM41 °FBroken clouds.17 mph81%29.92 "HgN/A
2:20 PM43 °FBroken clouds.18 mph76%29.92 "HgN/A
1:50 PM41 °FScattered clouds.17 mph87%29.92 "HgN/A
1:20 PM43 °FSprinkles. Broken clouds.21 mph76%29.89 "HgN/A
12:50 PM43 °FSprinkles. Broken clouds.21 mph71%29.89 "HgN/A
12:20 PM45 °FPartly sunny.18 mph61%29.89 "HgN/A
11:50 AM45 °FPartly sunny.21 mph61%29.89 "HgN/A
11:20 AM43 °FPartly sunny.18 mph71%29.89 "HgN/A
10:50 AM41 °FScattered clouds.20 mph87%29.89 "HgN/A
10:20 AM43 °FBroken clouds.13 mph81%29.89 "HgN/A
9:50 AM43 °FSprinkles. Broken clouds.17 mph81%29.86 "HgN/A
9:20 AM43 °FSprinkles. Broken clouds.15 mph87%29.86 "HgN/A
8:50 AM43 °FBroken clouds.18 mph87%29.83 "HgN/A
8:20 AM43 °FSprinkles. Partly cloudy.16 mph87%29.83 "HgN/A
7:50 AM41 °FSprinkles. Passing clouds.17 mph93%29.83 "HgN/A
7:20 AM41 °FSprinkles. Passing clouds.20 mph93%29.83 "HgN/A
6:50 AM41 °FSprinkles. Passing clouds.20 mph93%29.83 "HgN/A
6:20 AM41 °FSprinkles. Passing clouds.18 mph93%29.83 "HgN/A
5:50 AM41 °FSprinkles. Passing clouds.20 mph87%29.83 "HgN/A
5:20 AM41 °FSprinkles. Passing clouds.20 mph87%29.83 "HgN/A
4:50 AM41 °FPassing clouds.17 mph87%29.86 "HgN/A
4:20 AM41 °FPassing clouds.18 mph87%29.86 "HgN/A
3:50 AM41 °FScattered showers. Passing clouds.16 mph87%29.86 "HgN/A
3:20 AM41 °FLight rain. Passing clouds.14 mph87%29.89 "HgN/A
2:50 AM41 °FPassing clouds.17 mph87%29.89 "HgN/A
2:20 AM41 °FPassing clouds.17 mph87%29.89 "HgN/A
1:50 AM41 °FPassing clouds.15 mph87%29.89 "HgN/A
1:20 AM41 °FPassing clouds.15 mph87%29.89 "HgN/A
12:50 AM39 °FPassing clouds.13 mph87%29.89 "HgN/A
12:20 AM39 °FPassing clouds.14 mph87%29.89 "HgN/A
11:50 PM
Dec 24
39 °FPassing clouds.15 mph87%29.89 "HgN/A
11:20 PM41 °FPassing clouds.13 mph87%29.86 "HgN/A
10:50 PM41 °FPassing clouds.13 mph87%29.86 "HgN/A
10:20 PM41 °FPassing clouds.13 mph87%29.86 "HgN/A
9:50 PM41 °FPassing clouds.13 mph87%29.86 "HgN/A
9:20 PM41 °FPassing clouds.12 mph87%29.86 "HgN/A
8:50 PM41 °FLight rain. Passing clouds.14 mph87%29.86 "HgN/A
8:20 PM41 °FPassing clouds.13 mph87%29.83 "HgN/A
7:50 PM43 °FLight rain. Passing clouds.15 mph76%29.83 "HgN/A
7:20 PM43 °FPassing clouds.10 mph81%29.83 "HgN/A
6:50 PM43 °FPassing clouds.10 mph81%29.83 "HgN/A
6:20 PM43 °FPassing clouds.12 mph81%29.83 "HgN/A
5:50 PM43 °FPassing clouds.12 mph87%29.80 "HgN/A
5:20 PM45 °FPassing clouds.12 mph81%29.80 "HgN/A
Weather by CustomWeather, © 2014

See weather overviewHow to use our weather pages